Yuma MCAS, AZ

4:08 PM MST on May 22, 2017 (GMT -0700)
Yuma Marine Corps Air Station

Weather History for KNYL - September, 2013

Change the Weather History Date:

Sunday, September 29, 2013

  Actual Average Record
Temperature  
Mean Temperature 82 °F 84 °F  
Max Temperature 97 °F 97 °F 110 °F (1980)
Min Temperature 66 °F 72 °F 50 °F (1894)
Degree Days  
Heating Degree Days 0 0  
Month to date heating degree days 0 0  
Since 1 July heating degree days 0 0  
Cooling Degree Days 17 19  
Month to date cooling degree days 668 703  
Year to date cooling degree days 4366 4156  
Growing Degree Days 30 (Base 50)    
Moisture  
Dew Point 30 °F    
Average Humidity 19    
Maximum Humidity 30    
Minimum Humidity 7    
Precipitation  
Precipitation 0.00 in 0.02 in 1.27 in (1971)
Month to date precipitation 0.51 0.52  
Year to date precipitation 2.31 2.61  
Sea Level Pressure  
Sea Level Pressure 29.95 in    
Wind  
Wind Speed 3 mph (NW)    
Max Wind Speed 9 mph    
Max Gust Speed 12 mph    
Visibility 10 miles    
Events      
T = Trace of Precipitation, MM = Missing Value Source: NWS Daily Summary

Daily Weather History Graph

Daily Weather History Graph

Search for Another Location

Airport or City:

Trip Planner

Search our weather history database for the weather conditions in past years. The results will help you decide how hot, cold, wet, or windy it might be!

Date:

Astronomy

Sep. 29, 2013 Rise Set
Actual Time 6:31 AM MST 6:25 PM MST
Civil Twilight 6:06 AM MST 6:49 PM MST
Nautical Twilight 5:38 AM MST 7:18 PM MST
Astronomical Twilight 5:09 AM MST 7:47 PM MST
Moon 1:31 AM MST (9/29) 3:10 PM MST (9/29)
Length of Visible Light 12h 42m
Length of Day
11h 53m
Waning Crescent, 26% of the Moon is Illuminated
Sep 29
Waning Crescent
Oct 4
New
Oct 11
First Quarter
Oct 18
Full
Oct 26
Last Quarter

Hourly Weather History & Observations

Time (MST) Temp. Dew Point Humidity Pressure Visibility Wind Dir Wind Speed Gust Speed Precip Events Conditions
12:57 AM 75.0 °F 28.9 °F 18% 29.97 in 10.0 mi East 3.5 mph - N/A   Clear
1:57 AM 72.0 °F 28.0 °F 20% 29.97 in 10.0 mi Calm Calm - N/A   Clear
2:57 AM 71.1 °F 30.0 °F 22% 29.96 in 10.0 mi Calm Calm - N/A   Clear
3:57 AM 70.0 °F 32.0 °F 25% 29.96 in 10.0 mi Calm Calm - N/A   Clear
4:57 AM 68.0 °F 35.1 °F 30% 29.97 in 10.0 mi Calm Calm - N/A   Clear
5:57 AM 69.1 °F 32.0 °F 25% 29.98 in 10.0 mi ENE 3.5 mph - N/A   Clear
6:57 AM 66.9 °F 30.9 °F 26% 29.99 in 10.0 mi Calm Calm - N/A   Clear
7:57 AM 73.0 °F 30.9 °F 21% 30.00 in 10.0 mi NNE 4.6 mph - N/A   Clear
8:57 AM 78.1 °F 28.0 °F 16% 30.02 in 10.0 mi NE 5.8 mph - N/A   Clear
9:57 AM 84.9 °F 28.9 °F 13% 30.02 in 10.0 mi NNE 5.8 mph - N/A   Clear
10:57 AM 90.0 °F 26.1 °F 10% 30.01 in 10.0 mi NNE 6.9 mph - N/A   Clear
11:57 AM 93.0 °F 21.0 °F 7% 29.99 in 10.0 mi NNE 5.8 mph - N/A   Clear
12:57 PM 95.0 °F 24.1 °F 8% 29.96 in 10.0 mi Variable 3.5 mph - N/A   Clear
1:57 PM 93.9 °F 25.0 °F 8% 29.93 in 10.0 mi Variable 3.5 mph - N/A   Clear
2:57 PM 95.0 °F 27.0 °F 9% 29.91 in 10.0 mi Variable 3.5 mph - N/A   Clear
3:57 PM 93.9 °F 27.0 °F 9% 29.90 in 10.0 mi Calm Calm - N/A   Clear
4:57 PM 93.9 °F 28.9 °F 10% 29.89 in 10.0 mi WSW 6.9 mph - N/A   Clear
5:57 PM 93.0 °F 30.0 °F 11% 29.88 in 10.0 mi West 4.6 mph - N/A   Clear
6:57 PM 89.1 °F 32.0 °F 13% 29.88 in 10.0 mi West 5.8 mph - N/A   Clear
7:57 PM 86.0 °F 35.1 °F 16% 29.90 in 10.0 mi WSW 5.8 mph - N/A   Clear
8:57 PM 82.0 °F 37.9 °F 21% 29.91 in 10.0 mi West 4.6 mph - N/A   Clear
9:57 PM 80.1 °F 36.0 °F 20% 29.91 in 10.0 mi WSW 3.5 mph - N/A   Clear
10:57 PM 78.1 °F 37.0 °F 23% 29.91 in 10.0 mi West 3.5 mph - N/A   Clear
11:57 PM 75.9 °F 37.0 °F 24% 29.90 in 10.0 mi Calm Calm - N/A   Clear